• In Lithuania
  • List of Countries
  • For 7 days
  • Water Temperature
  • Satellite Maps
  • Weather Map
  • Weather Widgets
  • user-avatar
    Login

    Hourly Weather Nakhchivan

    Today, 19 September, Tuesday

    Time Temperature Precipitation Wind Pressure Humidity
    00:00 +25°C° 0 mm 1 mps 690 mmHg 21%
    01:00 +24°C° 0 mm 1 mps 690 mmHg 22%
    02:00 +24°C° 0 mm 1 mps 690 mmHg 23%
    03:00 +24°C° 0 mm 2 mps 689 mmHg 22%
    04:00 +23°C° 0 mm 1 mps 689 mmHg 22%
    05:00 +23°C° 0 mm 1 mps 689 mmHg 23%
    06:00 +22°C° 0 mm 1 mps 689 mmHg 24%
    07:00 +25°C° 0 mm 1 mps 689 mmHg 20%
    08:00 +27°C° 0 mm 1 mps 690 mmHg 17%
    09:00 +30°C° 0 mm 1 mps 691 mmHg 14%
    10:00 +31°C° 0 mm 1 mps 690 mmHg 13%
    11:00 +32°C° 0 mm 2 mps 690 mmHg 12%
    12:00 +34°C° 0 mm 2 mps 690 mmHg 11%
    13:00 +35°C° 0 mm 2 mps 690 mmHg 10%
    14:00 +35°C° 0 mm 3 mps 690 mmHg 10%
    15:00 +36°C° 0 mm 3 mps 689 mmHg 10%
    16:00 +34°C° 0 mm 3 mps 689 mmHg 11%
    17:00 +32°C° 0 mm 2 mps 689 mmHg 12%
    18:00 +30°C° 0 mm 2 mps 689 mmHg 13%
    19:00 +29°C° 0 mm 2 mps 689 mmHg 15%
    20:00 +28°C° 0 mm 2 mps 689 mmHg 16%
    21:00 +27°C° 0 mm 2 mps 689 mmHg 18%
    22:00 +26°C° 0 mm 2 mps 689 mmHg 19%
    23:00 +26°C° 0 mm 2 mps 689 mmHg 20%

    Tomorrow, 20 September, Wednesday

    Time Temperature Precipitation Wind Pressure Humidity
    00:00 +25°C° 0 mm 1 mps 689 mmHg 21%
    01:00 +24°C° 0 mm 1 mps 689 mmHg 22%
    02:00 +24°C° 0 mm 1 mps 689 mmHg 23%
    03:00 +23°C° 0 mm 1 mps 689 mmHg 24%
    04:00 +23°C° 0 mm 1 mps 689 mmHg 25%
    05:00 +22°C° 0 mm 1 mps 689 mmHg 26%
    06:00 +22°C° 0 mm 1 mps 689 mmHg 27%
    07:00 +24°C° 0 mm 1 mps 689 mmHg 23%
    08:00 +27°C° 0 mm 1 mps 690 mmHg 19%
    09:00 +29°C° 0 mm 1 mps 690 mmHg 16%
    10:00 +30°C° 0 mm 1 mps 690 mmHg 14%
    11:00 +32°C° 0 mm 1 mps 690 mmHg 13%
    12:00 +34°C° 0 mm 2 mps 690 mmHg 12%
    13:00 +34°C° 0 mm 2 mps 689 mmHg 11%
    14:00 +35°C° 0 mm 2 mps 689 mmHg 11%
    15:00 +35°C° 0 mm 3 mps 689 mmHg 10%
    16:00 +34°C° 0 mm 2 mps 689 mmHg 12%
    17:00 +32°C° 0 mm 2 mps 689 mmHg 13%
    18:00 +30°C° 0 mm 2 mps 688 mmHg 15%
    19:00 +29°C° 0 mm 2 mps 689 mmHg 17%
    20:00 +28°C° 0 mm 2 mps 689 mmHg 19%
    21:00 +27°C° 0 mm 1 mps 689 mmHg 22%
    22:00 +26°C° 0 mm 1 mps 689 mmHg 24%
    23:00 +26°C° 0 mm 1 mps 689 mmHg 25%

    Day after tomorrow, 21 September, Thursday

    Time Temperature Precipitation Wind Pressure Humidity
    00:00 +25°C° 0 mm 1 mps 688 mmHg 27%
    01:00 +25°C° 0 mm 1 mps 688 mmHg 28%
    02:00 +24°C° 0 mm 1 mps 688 mmHg 29%
    03:00 +24°C° 0 mm 1 mps 688 mmHg 29%
    04:00 +23°C° 0 mm 1 mps 688 mmHg 29%
    05:00 +23°C° 0 mm 1 mps 688 mmHg 30%
    06:00 +22°C° 0 mm 1 mps 688 mmHg 30%
    07:00 +25°C° 0 mm 1 mps 689 mmHg 26%
    08:00 +27°C° 0 mm 1 mps 689 mmHg 22%
    09:00 +29°C° 0 mm 1 mps 690 mmHg 18%
    10:00 +31°C° 0 mm 1 mps 689 mmHg 17%
    11:00 +32°C° 0 mm 1 mps 689 mmHg 16%
    12:00 +34°C° 0 mm 2 mps 689 mmHg 14%
    13:00 +34°C° 0 mm 2 mps 688 mmHg 14%
    14:00 +35°C° 0 mm 2 mps 688 mmHg 14%
    15:00 +35°C° 0 mm 2 mps 688 mmHg 13%
    16:00 +34°C° 0 mm 2 mps 688 mmHg 15%
    17:00 +32°C° 0 mm 2 mps 687 mmHg 17%
    18:00 +30°C° 0 mm 2 mps 687 mmHg 19%
    19:00 +30°C° 0 mm 2 mps 688 mmHg 22%
    20:00 +29°C° 0 mm 2 mps 688 mmHg 24%
    21:00 +28°C° 0 mm 2 mps 688 mmHg 27%
    22:00 +27°C° 0 mm 2 mps 688 mmHg 28%
    23:00 +26°C° 0 mm 2 mps 688 mmHg 30%

    22 September, Friday

    Time Temperature Precipitation Wind Pressure Humidity
    00:00 +26°C° 0 mm 2 mps 688 mmHg 31%
    01:00 +25°C° 0 mm 1 mps 687 mmHg 32%
    02:00 +25°C° 0 mm 1 mps 687 mmHg 33%
    03:00 +24°C° 0 mm 1 mps 687 mmHg 34%
    04:00 +24°C° 0 mm 1 mps 687 mmHg 35%
    05:00 +23°C° 0 mm 1 mps 687 mmHg 37%
    06:00 +23°C° 0 mm 1 mps 687 mmHg 38%
    07:00 +25°C° 0 mm 1 mps 688 mmHg 33%
    08:00 +27°C° 0 mm 1 mps 688 mmHg 29%
    09:00 +29°C° 0 mm 1 mps 688 mmHg 24%
    10:00 +31°C° 0 mm 2 mps 688 mmHg 22%
    11:00 +32°C° 0 mm 2 mps 688 mmHg 19%
    12:00 +34°C° 0 mm 3 mps 687 mmHg 17%
    13:00 +35°C° 0 mm 3 mps 687 mmHg 16%
    14:00 +35°C° 0 mm 3 mps 687 mmHg 15%
    15:00 +36°C° 0 mm 3 mps 686 mmHg 14%
    16:00 +35°C° 0 mm 3 mps 686 mmHg 16%
    17:00 +33°C° 0 mm 3 mps 686 mmHg 18%
    18:00 +31°C° 0 mm 3 mps 686 mmHg 21%
    19:00 +30°C° 0 mm 3 mps 687 mmHg 24%
    20:00 +29°C° 0 mm 3 mps 687 mmHg 28%
    21:00 +28°C° 0 mm 2 mps 687 mmHg 31%
    22:00 +27°C° 0 mm 2 mps 688 mmHg 34%
    23:00 +26°C° 0 mm 2 mps 688 mmHg 36%

    23 September, Saturday

    Time Temperature Precipitation Wind Pressure Humidity
    00:00 +25°C° 0 mm 2 mps 688 mmHg 39%
    01:00 +25°C° 0 mm 2 mps 688 mmHg 40%
    02:00 +24°C° 0 mm 2 mps 688 mmHg 42%
    03:00 +24°C° 0 mm 2 mps 688 mmHg 43%
    04:00 +23°C° 0 mm 2 mps 688 mmHg 44%
    05:00 +23°C° 0 mm 1 mps 688 mmHg 44%
    06:00 +22°C° 0 mm 1 mps 688 mmHg 45%
    07:00 +24°C° 0 mm 1 mps 689 mmHg 40%
    08:00 +26°C° 0 mm 1 mps 689 mmHg 34%
    09:00 +28°C° 0 mm 1 mps 690 mmHg 29%
    10:00 +29°C° 0 mm 2 mps 690 mmHg 27%
    11:00 +30°C° 0 mm 2 mps 690 mmHg 24%
    12:00 +31°C° 0 mm 2 mps 690 mmHg 22%
    13:00 +32°C° 0 mm 2 mps 689 mmHg 21%
    14:00 +32°C° 0 mm 2 mps 689 mmHg 19%
    15:00 +34°C° 0 mm 3 mps 689 mmHg 18%
    16:00 +33°C° 0 mm 3 mps 689 mmHg 20%
    17:00 +30°C° 0 mm 3 mps 689 mmHg 22%
    18:00 +29°C° 0 mm 3 mps 689 mmHg 24%
    19:00 +28°C° 0 mm 2 mps 689 mmHg 27%
    20:00 +27°C° 0 mm 2 mps 689 mmHg 30%
    21:00 +26°C° 0 mm 2 mps 690 mmHg 33%
    22:00 +25°C° 0 mm 2 mps 690 mmHg 36%
    23:00 +25°C° 0 mm 2 mps 690 mmHg 38%

    24 September, Sunday

    Time Temperature Precipitation Wind Pressure Humidity
    00:00 +24°C° 0 mm 2 mps 690 mmHg 40%
    01:00 +24°C° 0 mm 2 mps 690 mmHg 41%
    02:00 +23°C° 0 mm 1 mps 689 mmHg 43%
    03:00 +22°C° 0 mm 1 mps 689 mmHg 44%
    04:00 +22°C° 0 mm 1 mps 690 mmHg 44%
    05:00 +22°C° 0 mm 1 mps 690 mmHg 45%
    06:00 +21°C° 0 mm 1 mps 690 mmHg 46%
    07:00 +23°C° 0 mm 1 mps 690 mmHg 40%
    08:00 +25°C° 0 mm 1 mps 691 mmHg 35%
    09:00 +27°C° 0 mm 1 mps 691 mmHg 30%
    10:00 +28°C° 0 mm 1 mps 691 mmHg 27%
    11:00 +30°C° 0 mm 1 mps 690 mmHg 24%
    12:00 +31°C° 0 mm 2 mps 690 mmHg 21%
    13:00 +31°C° 0 mm 2 mps 690 mmHg 20%
    14:00 +32°C° 0 mm 2 mps 690 mmHg 19%
    15:00 +34°C° 0 mm 3 mps 689 mmHg 18%
    16:00 +31°C° 0 mm 3 mps 690 mmHg 19%
    17:00 +30°C° 0 mm 3 mps 690 mmHg 21%
    18:00 +29°C° 0 mm 3 mps 690 mmHg 23%
    19:00 +28°C° 0 mm 2 mps 690 mmHg 26%
    20:00 +27°C° 0 mm 2 mps 690 mmHg 29%
    21:00 +26°C° 0 mm 2 mps 690 mmHg 31%
    22:00 +25°C° 0 mm 2 mps 690 mmHg 33%
    23:00 +24°C° 0 mm 2 mps 690 mmHg 35%
    Show more